Regional Weather Roundup
Issued by NWS

Home | Current Version | Previous Version | Text Only | Print | Product List | Glossary Off
Versions: 1 2 3 4 5 6 7 8 9 10 11 12 13 14 15 16 17 18 19 20 21 22 23 24 25 26 27 28 29 30 31 32 33 34 35 36 37 38 39 40 41 42 43 44 45 46 47 48 49 50

000
ASUS45 KBOI 211510
RWRID
WEATHER ROUNDUP FOR IDAHO
NATIONAL WEATHER SERVICE BOISE ID
800 AM MST SUN DEC 21 2014

NOTE: "FAIR" INDICATES FEW OR NO CLOUDS BELOW 12000 FEET
WITH NO SIGNIFICANT WEATHER AND/OR OBSTRUCTIONS TO VISIBILITY

IDZ012-014-211600-
SOUTHWEST IDAHO


CITY           SKY/WX    TMP DP  RH WIND       PRES   REMARKS
BOISE          CLOUDY    43  40  89 E5        29.84S
CALDWELL       CLOUDY    43  36  75 NE6       29.85R
MOUNTAIN HOME  CLOUDY    41  40  97 SW3       29.85S
$$

IDZ016-017-211600-
SOUTHCENTRAL IDAHO


CITY           SKY/WX    TMP DP  RH WIND       PRES   REMARKS
BURLEY         LGT RAIN  45  41  86 W21G26    29.83R
JEROME         LGT RAIN  44  40  85 SW16      29.84S
TWIN FALLS     LGT RAIN  48  41  76 SW29G36   29.83F
$$

IDZ019>023-211600-
SOUTHEAST IDAHO


CITY           SKY/WX    TMP DP  RH WIND       PRES   REMARKS
IDAHO FALLS    CLOUDY    40  38  93 SW24G35   29.72F WCI  29
POCATELLO      CLOUDY    43  41  93 SW23G35   29.81S
REXBURG        CLOUDY    37  36  96 SW21G28   29.71R WCI  26
$$

IDZ006-010-011-018-031-032-211600-
CENTRAL IDAHO MOUNTAINS


CITY           SKY/WX    TMP DP  RH WIND       PRES   REMARKS
MCCALL         LGT RAIN  33  32  96 NE6       29.78R WCI  28
HAILEY         LGT SNOW  32  32 100 CALM      29.80S VSB 1
STANLEY          N/A     36  31  82 NW7       29.75R WCI  30
SALMON         CLOUDY    36  32  87 N15G26    29.63R WCI  26
CHALLIS        LGT RAIN  36  34  92 CALM      29.68R
$$

IDZ002-004-006-007-026-211600-
NORTHERN IDAHO


CITY           SKY/WX    TMP DP  RH WIND       PRES   REMARKS
LEWISTON       LGT RAIN  54  41  61 W26G35    29.70R
LOWELL           N/A     39  38  96 CALM      29.71R
COEUR D`ALENE  PTCLDY    41  36  81 SW18      29.60R
MULLAN PASS      N/A    N/A N/A N/A MISG      29.54R
$$


USA.gov is the U.S. government's official web portal to all federal, state and local government web resources and services.